Year,Month,Day,Hour,Minute,Value (Times are PST for temperature in C)
2008,06,19,00,00,12.30
2008,06,19,00,01,12.30
2008,06,19,00,02,12.30
2008,06,19,00,03,12.30
2008,06,19,00,04,12.30
2008,06,19,00,05,12.30
2008,06,19,00,06,12.20
2008,06,19,00,07,12.00
2008,06,19,00,08,11.90
2008,06,19,00,09,11.70
2008,06,19,00,10,11.60
2008,06,19,00,11,11.60
2008,06,19,00,12,11.60
2008,06,19,00,13,11.20
2008,06,19,00,14,11.10
2008,06,19,00,15,11.00
2008,06,19,00,16,10.90
2008,06,19,00,17,10.80
2008,06,19,00,18,10.80
2008,06,19,00,19,10.70
2008,06,19,00,20,10.70
2008,06,19,00,21,10.60
2008,06,19,00,22,10.60
2008,06,19,00,23,10.60
2008,06,19,00,24,10.60
2008,06,19,00,25,10.60
2008,06,19,00,26,10.60
2008,06,19,00,27,10.60
2008,06,19,00,28,10.60
2008,06,19,00,29,10.60
2008,06,19,00,30,10.60
2008,06,19,00,31,10.60
2008,06,19,00,32,10.60
2008,06,19,00,33,10.60
2008,06,19,00,34,10.60
2008,06,19,00,35,10.60
2008,06,19,00,36,10.60
2008,06,19,00,37,10.60
2008,06,19,00,38,10.60
2008,06,19,00,39,10.60
2008,06,19,00,40,10.60
2008,06,19,00,41,10.60
2008,06,19,00,42,10.60
2008,06,19,00,43,10.60
2008,06,19,00,44,10.60
2008,06,19,00,45,10.60
2008,06,19,00,46,10.60
2008,06,19,00,47,10.60
2008,06,19,00,48,10.60
2008,06,19,00,49,10.60
2008,06,19,00,50,10.50
2008,06,19,00,51,10.60
2008,06,19,00,52,10.60
2008,06,19,00,53,10.60
2008,06,19,00,54,10.60
2008,06,19,00,55,10.60
2008,06,19,00,56,10.60
2008,06,19,00,57,10.60
2008,06,19,00,58,10.60
2008,06,19,00,59,10.50
2008,06,19,01,00,10.40
2008,06,19,01,01,10.40
2008,06,19,01,02,10.40
2008,06,19,01,03,10.40
2008,06,19,01,04,10.40
2008,06,19,01,05,10.40
2008,06,19,01,06,10.40
2008,06,19,01,07,10.40
2008,06,19,01,08,10.40
2008,06,19,01,09,10.40
2008,06,19,01,10,10.40
2008,06,19,01,11,10.40
2008,06,19,01,12,10.40
2008,06,19,01,13,10.40
2008,06,19,01,14,10.40
2008,06,19,01,15,10.40
2008,06,19,01,16,10.40
2008,06,19,01,17,10.40
2008,06,19,01,18,10.40
2008,06,19,01,19,10.40
2008,06,19,01,20,10.40
2008,06,19,01,21,10.40
2008,06,19,01,22,10.40
2008,06,19,01,23,10.40
2008,06,19,01,24,10.40
2008,06,19,01,25,10.40
2008,06,19,01,26,10.40
2008,06,19,01,27,10.40
2008,06,19,01,28,10.30
2008,06,19,01,29,10.30
2008,06,19,01,30,10.30
2008,06,19,01,31,10.30
2008,06,19,01,32,10.20
2008,06,19,01,33,10.20
2008,06,19,01,34,10.20
2008,06,19,01,35,10.20
2008,06,19,01,36,10.20
2008,06,19,01,37,10.10
2008,06,19,01,38,10.10
2008,06,19,01,39,10.10
2008,06,19,01,40,10.10
2008,06,19,01,41,10.10
2008,06,19,01,42,10.10
2008,06,19,01,43,10.10
2008,06,19,01,44,10.10
2008,06,19,01,45,10.10
2008,06,19,01,46,10.10
2008,06,19,01,47,10.10
2008,06,19,01,48,10.10
2008,06,19,01,49,10.10
2008,06,19,01,50,10.10
2008,06,19,01,51,10.10
2008,06,19,01,52,10.10
2008,06,19,01,53,10.10
2008,06,19,01,54,10.10
2008,06,19,01,55,10.10
2008,06,19,01,56,10.10
2008,06,19,01,57,10.10
2008,06,19,01,58,10.10
2008,06,19,01,59,10.10
2008,06,19,02,00,10.10
2008,06,19,02,01,10.10
2008,06,19,02,02,10.10
2008,06,19,02,03,10.10
2008,06,19,02,04,10.10
2008,06,19,02,05,10.10
2008,06,19,02,06,10.10
2008,06,19,02,07,10.10
2008,06,19,02,08,10.10
2008,06,19,02,09,10.10
2008,06,19,02,10,10.10
2008,06,19,02,11,10.10
2008,06,19,02,12,10.10
2008,06,19,02,13,10.10
2008,06,19,02,14,10.10
2008,06,19,02,15,10.10
2008,06,19,02,16,10.10
2008,06,19,02,17,10.10
2008,06,19,02,18,10.10
2008,06,19,02,19,10.10
2008,06,19,02,20,10.10
2008,06,19,02,21,10.10
2008,06,19,02,22,10.10
2008,06,19,02,23,9.90
2008,06,19,02,24,9.90
2008,06,19,02,25,9.90
2008,06,19,02,26,9.90
2008,06,19,02,27,9.90
2008,06,19,02,28,9.90
2008,06,19,02,29,9.90
2008,06,19,02,30,9.90
2008,06,19,02,31,9.90
2008,06,19,02,32,9.90
2008,06,19,02,33,9.90
2008,06,19,02,34,9.90
2008,06,19,02,35,9.90
2008,06,19,02,36,9.90
2008,06,19,02,37,9.90
2008,06,19,02,38,9.90
2008,06,19,02,39,10.10
2008,06,19,02,40,10.10
2008,06,19,02,41,10.10
2008,06,19,02,42,10.10
2008,06,19,02,43,10.10
2008,06,19,02,44,10.10
2008,06,19,02,45,10.10
2008,06,19,02,46,10.10
2008,06,19,02,47,10.10
2008,06,19,02,48,10.10
2008,06,19,02,49,10.10
2008,06,19,02,50,10.10
2008,06,19,02,51,10.10
2008,06,19,02,52,10.10
2008,06,19,02,53,10.10
2008,06,19,02,54,10.10
2008,06,19,02,55,10.10
2008,06,19,02,56,10.10
2008,06,19,02,57,10.10
2008,06,19,02,58,10.10
2008,06,19,02,59,10.10
2008,06,19,03,00,10.10
2008,06,19,03,01,10.10
2008,06,19,03,02,10.10
2008,06,19,03,03,10.10
2008,06,19,03,04,10.10
2008,06,19,03,05,10.10
2008,06,19,03,06,10.10
2008,06,19,03,07,10.10
2008,06,19,03,08,10.10
2008,06,19,03,09,10.10
2008,06,19,03,10,10.10
2008,06,19,03,11,10.10
2008,06,19,03,12,10.10
2008,06,19,03,13,10.10
2008,06,19,03,14,10.20
2008,06,19,03,15,10.20
2008,06,19,03,16,10.20
2008,06,19,03,17,10.20
2008,06,19,03,18,10.20
2008,06,19,03,19,10.20
2008,06,19,03,20,10.30
2008,06,19,03,21,10.30
2008,06,19,03,22,10.20
2008,06,19,03,23,10.20
2008,06,19,03,24,10.20
2008,06,19,03,25,10.20
2008,06,19,03,26,10.20
2008,06,19,03,27,10.20
2008,06,19,03,28,10.20
2008,06,19,03,29,10.20
2008,06,19,03,30,10.20
2008,06,19,03,31,10.20
2008,06,19,03,32,10.20
2008,06,19,03,33,10.20
2008,06,19,03,34,10.20
2008,06,19,03,35,10.20
2008,06,19,03,36,10.20
2008,06,19,03,37,10.20
2008,06,19,03,38,10.20
2008,06,19,03,39,10.20
2008,06,19,03,40,10.20
2008,06,19,03,41,10.20
2008,06,19,03,42,10.20
2008,06,19,03,43,10.20
2008,06,19,03,44,10.20
2008,06,19,03,45,10.20
2008,06,19,03,46,10.20
2008,06,19,03,47,10.30
2008,06,19,03,48,10.30
2008,06,19,03,49,10.30
2008,06,19,03,50,10.30
2008,06,19,03,51,10.30
2008,06,19,03,52,10.30
2008,06,19,03,53,10.30
2008,06,19,03,54,10.30
2008,06,19,03,55,10.30
2008,06,19,03,56,10.40
2008,06,19,03,57,10.40
2008,06,19,03,58,10.40
2008,06,19,03,59,10.40
2008,06,19,04,00,10.40
2008,06,19,04,01,10.40
2008,06,19,04,02,10.40
2008,06,19,04,03,10.40
2008,06,19,04,04,10.40
2008,06,19,04,05,10.40
2008,06,19,04,06,10.40
2008,06,19,04,07,10.40
2008,06,19,04,08,10.40
2008,06,19,04,09,10.40
2008,06,19,04,10,10.40
2008,06,19,04,11,10.40
2008,06,19,04,12,10.40
2008,06,19,04,13,10.40
2008,06,19,04,14,10.40
2008,06,19,04,15,10.40
2008,06,19,04,16,10.40
2008,06,19,04,17,10.40
2008,06,19,04,18,10.40
2008,06,19,04,19,10.40
2008,06,19,04,20,10.40
2008,06,19,04,21,10.40
2008,06,19,04,22,10.40
2008,06,19,04,23,10.40
2008,06,19,04,24,10.40
2008,06,19,04,25,10.40
2008,06,19,04,26,10.40
2008,06,19,04,27,10.40
2008,06,19,04,28,10.30
2008,06,19,04,29,10.30
2008,06,19,04,30,10.40
2008,06,19,04,31,10.40
2008,06,19,04,32,10.40
2008,06,19,04,33,10.40
2008,06,19,04,34,10.40
2008,06,19,04,35,10.40
2008,06,19,04,36,10.40
2008,06,19,04,37,10.40
2008,06,19,04,38,10.40
2008,06,19,04,39,10.40
2008,06,19,04,40,10.40
2008,06,19,04,41,10.40
2008,06,19,04,42,10.40
2008,06,19,04,43,10.40
2008,06,19,04,44,10.40
2008,06,19,04,45,10.40
2008,06,19,04,46,10.40
2008,06,19,04,47,10.40
2008,06,19,04,48,10.40
2008,06,19,04,49,10.50
2008,06,19,04,50,10.40
2008,06,19,04,51,10.40
2008,06,19,04,52,10.40
2008,06,19,04,53,10.40
2008,06,19,04,54,10.40
2008,06,19,04,55,10.40
2008,06,19,04,56,10.40
2008,06,19,04,57,10.40
2008,06,19,04,58,10.40
2008,06,19,04,59,10.40
2008,06,19,05,00,10.40
2008,06,19,05,01,10.40
2008,06,19,05,02,10.40
2008,06,19,05,03,10.40
2008,06,19,05,04,10.40
2008,06,19,05,05,10.30
2008,06,19,05,06,10.30
2008,06,19,05,07,10.40
2008,06,19,05,08,10.40
2008,06,19,05,09,10.40
2008,06,19,05,10,10.40
2008,06,19,05,11,10.40
2008,06,19,05,12,10.40
2008,06,19,05,13,10.40
2008,06,19,05,14,10.40
2008,06,19,05,15,10.40
2008,06,19,05,16,10.40
2008,06,19,05,17,10.40
2008,06,19,05,18,10.40
2008,06,19,05,19,10.40
2008,06,19,05,20,10.40
2008,06,19,05,21,10.40
2008,06,19,05,22,10.40
2008,06,19,05,23,10.40
2008,06,19,05,24,10.40
2008,06,19,05,25,10.40
2008,06,19,05,26,10.40
2008,06,19,05,27,10.40
2008,06,19,05,28,10.30
2008,06,19,05,29,10.30
2008,06,19,05,30,10.30
2008,06,19,05,31,10.30
2008,06,19,05,32,10.30
2008,06,19,05,33,10.30
2008,06,19,05,34,10.30
2008,06,19,05,35,10.30
2008,06,19,05,36,10.30
2008,06,19,05,37,10.40
2008,06,19,05,38,10.40
2008,06,19,05,39,10.40
2008,06,19,05,40,10.40
2008,06,19,05,41,10.40
2008,06,19,05,42,10.40
2008,06,19,05,43,10.40
2008,06,19,05,44,10.40
2008,06,19,05,45,10.40
2008,06,19,05,46,10.40
2008,06,19,05,47,10.40
2008,06,19,05,48,10.40
2008,06,19,05,49,10.40
2008,06,19,05,50,10.40
2008,06,19,05,51,10.40
2008,06,19,05,52,10.40
2008,06,19,05,53,10.40
2008,06,19,05,54,10.40
2008,06,19,05,55,10.40
2008,06,19,05,56,10.40
2008,06,19,05,57,10.40
2008,06,19,05,58,10.40
2008,06,19,05,59,10.40
2008,06,19,06,00,10.40
2008,06,19,06,01,10.40
2008,06,19,06,02,10.40
2008,06,19,06,03,10.40
2008,06,19,06,04,10.40
2008,06,19,06,05,10.40
2008,06,19,06,06,10.40
2008,06,19,06,07,10.40
2008,06,19,06,08,10.40
2008,06,19,06,09,10.40
2008,06,19,06,10,10.40
2008,06,19,06,11,10.40
2008,06,19,06,12,10.40
2008,06,19,06,13,10.40
2008,06,19,06,14,10.40
2008,06,19,06,15,10.40
2008,06,19,06,16,10.40
2008,06,19,06,17,10.40
2008,06,19,06,18,10.40
2008,06,19,06,19,10.40
2008,06,19,06,20,10.40
2008,06,19,06,21,10.40
2008,06,19,06,22,10.40
2008,06,19,06,23,10.40
2008,06,19,06,24,10.40
2008,06,19,06,25,10.40
2008,06,19,06,26,10.40
2008,06,19,06,27,10.40
2008,06,19,06,28,10.40
2008,06,19,06,29,10.40
2008,06,19,06,30,10.40
2008,06,19,06,31,10.40
2008,06,19,06,32,10.40
2008,06,19,06,33,10.40
2008,06,19,06,34,10.40
2008,06,19,06,35,10.40
2008,06,19,06,36,10.40
2008,06,19,06,37,10.50
2008,06,19,06,38,10.60
2008,06,19,06,39,10.60
2008,06,19,06,40,10.60
2008,06,19,06,41,10.60
2008,06,19,06,42,10.50
2008,06,19,06,43,10.40
2008,06,19,06,44,10.50
2008,06,19,06,45,10.60
2008,06,19,06,46,10.60
2008,06,19,06,47,10.60
2008,06,19,06,48,10.60
2008,06,19,06,49,10.60
2008,06,19,06,50,10.60
2008,06,19,06,51,10.60
2008,06,19,06,52,10.60
2008,06,19,06,53,10.70
2008,06,19,06,54,10.70
2008,06,19,06,55,10.70
2008,06,19,06,56,10.70
2008,06,19,06,57,10.70
2008,06,19,06,58,10.70
2008,06,19,06,59,10.70
2008,06,19,07,00,10.70
2008,06,19,07,01,10.70
2008,06,19,07,02,10.70
2008,06,19,07,03,10.70
2008,06,19,07,04,10.70
2008,06,19,07,05,10.80
2008,06,19,07,06,10.80
2008,06,19,07,07,10.80
2008,06,19,07,08,10.80
2008,06,19,07,09,10.80
2008,06,19,07,10,10.80
2008,06,19,07,11,10.80
2008,06,19,07,12,10.80
2008,06,19,07,13,10.80
2008,06,19,07,14,10.90
2008,06,19,07,15,10.90
2008,06,19,07,16,10.90
2008,06,19,07,17,10.90
2008,06,19,07,18,10.90
2008,06,19,07,19,10.90
2008,06,19,07,20,10.90
2008,06,19,07,21,10.90
2008,06,19,07,22,11.00
2008,06,19,07,23,11.10
2008,06,19,07,24,11.10
2008,06,19,07,25,11.10
2008,06,19,07,26,11.10
2008,06,19,07,27,11.10
2008,06,19,07,28,11.10
2008,06,19,07,29,11.10
2008,06,19,07,30,11.10
2008,06,19,07,31,11.10
2008,06,19,07,32,11.10
2008,06,19,07,33,11.10
2008,06,19,07,34,11.10
2008,06,19,07,35,11.10
2008,06,19,07,36,11.10
2008,06,19,07,37,11.10
2008,06,19,07,38,11.10
2008,06,19,07,39,11.20
2008,06,19,07,40,11.20
2008,06,19,07,41,11.20
2008,06,19,07,42,11.20
2008,06,19,07,43,11.20
2008,06,19,07,44,11.20
2008,06,19,07,45,11.20
2008,06,19,07,46,11.20
2008,06,19,07,47,11.20
2008,06,19,07,48,11.20
2008,06,19,07,49,11.20
2008,06,19,07,50,11.20
2008,06,19,07,51,11.20
2008,06,19,07,52,11.20
2008,06,19,07,53,11.30
2008,06,19,07,54,11.30
2008,06,19,07,55,11.30
2008,06,19,07,56,11.40
2008,06,19,07,57,11.40
2008,06,19,07,58,11.40
2008,06,19,07,59,11.40
2008,06,19,08,00,11.40
2008,06,19,08,01,11.40
2008,06,19,08,02,11.40
2008,06,19,08,03,11.40
2008,06,19,08,04,11.40
2008,06,19,08,05,11.30
2008,06,19,08,06,11.30
2008,06,19,08,07,11.30
2008,06,19,08,08,11.30
2008,06,19,08,09,11.30
2008,06,19,08,10,11.30
2008,06,19,08,11,11.30
2008,06,19,08,12,11.30
2008,06,19,08,13,11.40
2008,06,19,08,14,11.40
2008,06,19,08,15,11.40
2008,06,19,08,16,11.40
2008,06,19,08,17,11.30
2008,06,19,08,18,11.30
2008,06,19,08,19,11.30
2008,06,19,08,20,11.30
2008,06,19,08,21,11.30
2008,06,19,08,22,11.30
2008,06,19,08,23,11.30
2008,06,19,08,24,11.30
2008,06,19,08,25,11.40
2008,06,19,08,26,11.40
2008,06,19,08,27,11.50
2008,06,19,08,28,11.60
2008,06,19,08,29,11.60
2008,06,19,08,30,11.60
2008,06,19,08,31,11.60
2008,06,19,08,32,11.60
2008,06,19,08,33,11.60
2008,06,19,08,34,11.60
2008,06,19,08,35,11.60
2008,06,19,08,36,11.60
2008,06,19,08,37,11.60
2008,06,19,08,38,11.50
2008,06,19,08,39,11.40
2008,06,19,08,40,11.40
2008,06,19,08,41,11.60
2008,06,19,08,42,11.60
2008,06,19,08,43,11.60
2008,06,19,08,44,11.70
2008,06,19,08,45,11.70
2008,06,19,08,46,11.60
2008,06,19,08,47,11.60
2008,06,19,08,48,11.50
2008,06,19,08,49,11.40
2008,06,19,08,50,11.50
2008,06,19,08,51,11.60
2008,06,19,08,52,11.60
2008,06,19,08,53,11.60
2008,06,19,08,54,11.70
2008,06,19,08,55,11.60
2008,06,19,08,56,11.60
2008,06,19,08,57,11.60
2008,06,19,08,58,11.60
2008,06,19,08,59,11.70
2008,06,19,09,00,11.70
2008,06,19,09,01,11.70
2008,06,19,09,02,11.60
2008,06,19,09,03,11.60
2008,06,19,09,04,11.60
2008,06,19,09,05,11.70
2008,06,19,09,06,11.70
2008,06,19,09,07,11.80
2008,06,19,09,08,11.80
2008,06,19,09,09,11.80
2008,06,19,09,10,11.80
2008,06,19,09,11,11.80
2008,06,19,09,12,11.80
2008,06,19,09,13,11.80
2008,06,19,09,14,11.80
2008,06,19,09,15,11.90
2008,06,19,09,16,11.90
2008,06,19,09,17,11.90
2008,06,19,09,18,11.90
2008,06,19,09,19,11.90
2008,06,19,09,20,12.00
2008,06,19,09,21,12.00
2008,06,19,09,22,12.00
2008,06,19,09,23,12.00
2008,06,19,09,24,12.00
2008,06,19,09,25,12.00
2008,06,19,09,26,12.00
2008,06,19,09,27,12.00
2008,06,19,09,28,12.00
2008,06,19,09,29,12.00
2008,06,19,09,30,12.00
2008,06,19,09,31,12.00
2008,06,19,09,32,12.00
2008,06,19,09,33,12.00
2008,06,19,09,34,12.10
2008,06,19,09,35,12.10
2008,06,19,09,36,12.10
2008,06,19,09,37,12.20
2008,06,19,09,38,12.10
2008,06,19,09,39,12.10
2008,06,19,09,40,12.10
2008,06,19,09,41,12.20
2008,06,19,09,42,12.30
2008,06,19,09,43,12.30
2008,06,19,09,44,12.30
2008,06,19,09,45,12.30
2008,06,19,09,46,12.20
2008,06,19,09,47,12.20
2008,06,19,09,48,12.30
2008,06,19,09,49,12.30
2008,06,19,09,50,12.30
2008,06,19,09,51,12.40
2008,06,19,09,52,12.40
2008,06,19,09,53,12.40
2008,06,19,09,54,12.50
2008,06,19,09,55,12.50
2008,06,19,09,56,12.40
2008,06,19,09,57,12.40
2008,06,19,09,58,12.40
2008,06,19,09,59,12.50
2008,06,19,10,00,12.40
2008,06,19,10,01,12.50
2008,06,19,10,02,12.50
2008,06,19,10,03,12.50
2008,06,19,10,04,12.50
2008,06,19,10,05,12.50
2008,06,19,10,06,12.50
2008,06,19,10,07,12.50
2008,06,19,10,08,12.50
2008,06,19,10,09,12.50
2008,06,19,10,10,12.50
2008,06,19,10,11,12.50
2008,06,19,13,51,16.00
2008,06,19,13,52,16.10
2008,06,19,13,53,16.20
2008,06,19,13,54,16.30
2008,06,19,13,55,16.30
2008,06,19,13,56,16.30
2008,06,19,13,57,16.40
2008,06,19,13,58,16.50
2008,06,19,13,59,16.60
2008,06,19,14,00,16.70
2008,06,19,14,01,16.80
2008,06,19,14,02,16.90
2008,06,19,14,03,17.00
2008,06,19,14,04,16.90
2008,06,19,14,05,17.00
2008,06,19,14,06,17.00
2008,06,19,14,07,17.00
2008,06,19,14,08,17.10
2008,06,19,14,09,17.10
2008,06,19,14,10,17.20
2008,06,19,14,11,17.20
2008,06,19,14,12,17.20
2008,06,19,14,13,17.30
2008,06,19,14,14,17.30
2008,06,19,14,15,17.30
2008,06,19,14,16,17.40
2008,06,19,14,17,17.50
2008,06,19,14,18,17.50
2008,06,19,14,19,17.60
2008,06,19,14,20,17.60
2008,06,19,14,21,17.60
2008,06,19,14,22,17.70
2008,06,19,14,23,17.70
2008,06,19,14,24,17.80
2008,06,19,14,25,17.80
2008,06,19,14,26,17.90
2008,06,19,14,27,17.90
2008,06,19,14,28,18.00
2008,06,19,14,29,18.10
2008,06,19,14,30,18.20
2008,06,19,14,31,18.20
2008,06,19,14,32,18.30
2008,06,19,14,33,18.30
2008,06,19,14,34,18.40
2008,06,19,14,35,18.50
2008,06,19,14,36,18.60
2008,06,19,14,37,18.60
2008,06,19,14,38,18.60
2008,06,19,14,39,18.70
2008,06,19,14,40,18.60
2008,06,19,14,41,18.50
2008,06,19,14,42,18.20
2008,06,19,14,43,18.00
2008,06,19,14,44,17.80
2008,06,19,14,45,17.80
2008,06,19,14,46,17.70
2008,06,19,14,47,17.70
2008,06,19,14,48,17.70
2008,06,19,14,49,17.70
2008,06,19,14,50,17.80
2008,06,19,14,51,17.90
2008,06,19,14,52,17.90
2008,06,19,14,53,17.90
2008,06,19,14,54,17.80
2008,06,19,14,55,17.70
2008,06,19,14,56,17.60
2008,06,19,14,57,17.50
2008,06,19,14,58,17.30
2008,06,19,14,59,17.10
2008,06,19,15,00,17.00
2008,06,19,15,01,17.00
2008,06,19,15,02,17.00
2008,06,19,15,03,17.00
2008,06,19,15,04,17.10
2008,06,19,15,05,17.20
2008,06,19,15,06,17.20
2008,06,19,15,07,17.30
2008,06,19,15,08,17.30
2008,06,19,15,09,17.30
2008,06,19,15,10,17.30
2008,06,19,15,11,17.30
2008,06,19,15,12,17.30
2008,06,19,15,13,17.30
2008,06,19,15,14,17.30
2008,06,19,15,15,17.30
2008,06,19,15,16,17.20
2008,06,19,15,17,17.10
2008,06,19,15,18,17.00
2008,06,19,15,19,17.00
2008,06,19,15,20,16.90
2008,06,19,15,21,16.80
2008,06,19,15,22,16.70
2008,06,19,15,23,16.70
2008,06,19,15,24,16.70
2008,06,19,15,25,16.70
2008,06,19,15,26,16.80
2008,06,19,15,27,16.90
2008,06,19,15,28,17.00
2008,06,19,15,29,17.00
2008,06,19,15,30,17.10
2008,06,19,15,31,17.10
2008,06,19,15,32,17.00
2008,06,19,15,33,17.00
2008,06,19,15,34,17.00
2008,06,19,15,35,17.00
2008,06,19,15,36,16.90
2008,06,19,15,37,16.90
2008,06,19,15,38,16.90
2008,06,19,15,39,16.90
2008,06,19,15,40,16.80
2008,06,19,15,41,16.70
2008,06,19,15,42,16.70
2008,06,19,15,43,16.70
2008,06,19,15,44,16.70
2008,06,19,15,45,16.80
2008,06,19,15,46,16.80
2008,06,19,15,47,16.90
2008,06,19,15,48,17.00
2008,06,19,15,49,17.00
2008,06,19,15,50,17.00
2008,06,19,15,51,17.00
2008,06,19,15,52,17.00
2008,06,19,15,53,17.00
2008,06,19,15,54,16.90
2008,06,19,15,55,16.90
2008,06,19,15,56,16.90
2008,06,19,15,57,16.90
2008,06,19,15,58,16.90
2008,06,19,15,59,16.90
2008,06,19,16,00,16.80
2008,06,19,16,01,16.70
2008,06,19,16,02,16.70
2008,06,19,16,03,16.70
2008,06,19,16,04,16.70
2008,06,19,16,05,16.70
2008,06,19,16,06,16.70
2008,06,19,16,07,16.70
2008,06,19,16,08,16.80
2008,06,19,16,09,16.80
2008,06,19,16,10,16.90
2008,06,19,16,11,17.00
2008,06,19,16,12,16.90
2008,06,19,16,13,16.90
2008,06,19,16,14,16.90
2008,06,19,16,15,17.00
2008,06,19,16,16,17.00
2008,06,19,16,17,17.10
2008,06,19,16,18,17.00
2008,06,19,16,19,17.00
2008,06,19,16,20,17.10
2008,06,19,16,21,17.10
2008,06,19,16,22,17.20
2008,06,19,16,23,17.20
2008,06,19,16,24,17.20
2008,06,19,16,25,17.10
2008,06,19,16,26,17.00
2008,06,19,16,27,16.90
2008,06,19,16,28,16.80
2008,06,19,16,29,16.80
2008,06,19,16,30,16.70
2008,06,19,16,31,16.70
2008,06,19,16,32,16.70
2008,06,19,16,33,16.70
2008,06,19,16,34,16.70
2008,06,19,16,35,16.60
2008,06,19,16,36,16.50
2008,06,19,16,37,16.40
2008,06,19,16,38,16.30
2008,06,19,16,39,16.30
2008,06,19,16,40,16.30
2008,06,19,16,41,16.30
2008,06,19,16,42,16.30
2008,06,19,16,43,16.30
2008,06,19,16,44,16.30
2008,06,19,16,45,16.30
2008,06,19,16,46,16.30
2008,06,19,16,47,16.40
2008,06,19,16,48,16.40
2008,06,19,16,49,16.40
2008,06,19,16,50,16.40
2008,06,19,16,51,16.40
2008,06,19,16,52,16.40
2008,06,19,16,53,16.40
2008,06,19,16,54,16.40
2008,06,19,16,55,16.40
2008,06,19,16,56,16.40
2008,06,19,16,57,16.50
2008,06,19,16,58,16.60
2008,06,19,16,59,16.60
2008,06,19,17,00,16.60
2008,06,19,17,01,16.50
2008,06,19,17,02,16.40
2008,06,19,17,03,16.40
2008,06,19,17,04,16.40
2008,06,19,17,05,16.40
2008,06,19,17,06,16.40
2008,06,19,17,07,16.40
2008,06,19,17,08,16.40
2008,06,19,17,09,16.60
2008,06,19,17,10,16.70
2008,06,19,17,11,16.70
2008,06,19,17,12,16.70
2008,06,19,17,13,16.70
2008,06,19,17,14,16.70
2008,06,19,17,15,16.60
2008,06,19,17,16,16.60
2008,06,19,17,17,16.60
2008,06,19,17,18,16.60
2008,06,19,17,19,16.70
2008,06,19,17,20,16.70
2008,06,19,17,21,16.70
2008,06,19,17,22,16.70
2008,06,19,17,23,16.70
2008,06,19,17,24,16.70
2008,06,19,17,25,16.70
2008,06,19,17,26,16.70
2008,06,19,17,27,16.70
2008,06,19,17,28,16.70
2008,06,19,17,29,16.70
2008,06,19,17,30,16.70
2008,06,19,17,31,16.60
2008,06,19,17,32,16.50
2008,06,19,17,33,16.40
2008,06,19,17,34,16.40
2008,06,19,17,35,16.30
2008,06,19,17,36,16.30
2008,06,19,17,37,16.30
2008,06,19,17,38,16.30
2008,06,19,17,39,16.20
2008,06,19,17,40,16.10
2008,06,19,17,41,16.10
2008,06,19,17,42,16.10
2008,06,19,17,43,16.10
2008,06,19,17,44,16.10
2008,06,19,17,45,16.10
2008,06,19,17,46,16.10
2008,06,19,17,47,16.10
2008,06,19,17,48,16.10
2008,06,19,17,49,16.10
2008,06,19,17,50,16.10
2008,06,19,17,51,16.10
2008,06,19,17,52,16.00
2008,06,19,17,53,15.90
2008,06,19,17,54,15.90
2008,06,19,17,55,15.80
2008,06,19,17,56,15.80
2008,06,19,17,57,15.80
2008,06,19,17,58,15.80
2008,06,19,17,59,15.80
2008,06,19,18,00,15.90
2008,06,19,18,01,15.90
2008,06,19,18,02,15.80
2008,06,19,18,03,15.80
2008,06,19,18,04,15.80
2008,06,19,18,05,15.80
2008,06,19,18,06,15.80
2008,06,19,18,07,15.80
2008,06,19,18,08,15.80
2008,06,19,18,09,15.80
2008,06,19,18,10,15.80
2008,06,19,18,11,15.80
2008,06,19,18,12,15.80
2008,06,19,18,13,15.80
2008,06,19,18,14,15.80
2008,06,19,18,15,15.80
2008,06,19,18,16,15.80
2008,06,19,18,17,15.80
2008,06,19,18,18,15.80
2008,06,19,18,19,15.80
2008,06,19,18,20,15.90
2008,06,19,18,21,15.90
2008,06,19,18,22,15.90
2008,06,19,18,23,15.90
2008,06,19,18,24,15.90
2008,06,19,18,25,15.80
2008,06,19,18,26,15.80
2008,06,19,18,27,15.90
2008,06,19,18,28,15.80
2008,06,19,18,29,15.80
2008,06,19,18,30,15.80
2008,06,19,18,31,15.80
2008,06,19,18,32,15.80
2008,06,19,18,33,15.80
2008,06,19,18,34,15.90
2008,06,19,18,35,15.90
2008,06,19,18,36,15.90
2008,06,19,18,37,15.90
2008,06,19,18,38,15.80
2008,06,19,18,39,15.80
2008,06,19,18,40,15.80
2008,06,19,18,41,15.80
2008,06,19,18,42,15.80
2008,06,19,18,43,15.80
2008,06,19,18,44,15.80
2008,06,19,18,45,15.80
2008,06,19,18,46,15.90
2008,06,19,18,47,15.90
2008,06,19,18,48,15.90
2008,06,19,18,49,16.00
2008,06,19,18,50,16.10
2008,06,19,18,51,16.10
2008,06,19,18,52,16.00
2008,06,19,18,53,15.90
2008,06,19,18,54,15.90
2008,06,19,18,55,15.90
2008,06,19,18,56,15.90
2008,06,19,18,57,15.90
2008,06,19,18,58,15.90
2008,06,19,18,59,15.90
2008,06,19,19,00,16.00
2008,06,19,19,01,16.10
2008,06,19,19,02,16.10
2008,06,19,19,03,16.10
2008,06,19,19,04,16.10
2008,06,19,19,05,16.00
2008,06,19,19,06,15.90
2008,06,19,19,07,15.80
2008,06,19,19,08,15.80
2008,06,19,19,09,15.80
2008,06,19,19,10,15.80
2008,06,19,19,11,15.80
2008,06,19,19,12,15.80
2008,06,19,19,13,15.80
2008,06,19,19,14,15.90
2008,06,19,19,15,15.90
2008,06,19,19,16,15.90
2008,06,19,19,17,15.80
2008,06,19,19,18,15.80
2008,06,19,19,19,15.80
2008,06,19,19,20,15.80
2008,06,19,19,21,15.90
2008,06,19,19,22,15.90
2008,06,19,19,23,15.90
2008,06,19,19,24,15.90
2008,06,19,19,25,15.90
2008,06,19,19,26,16.10
2008,06,19,19,27,16.10
2008,06,19,19,28,16.10
2008,06,19,19,29,16.10
2008,06,19,19,30,16.10
2008,06,19,19,31,16.10
2008,06,19,19,32,16.10
2008,06,19,19,33,16.10
2008,06,19,19,34,16.10
2008,06,19,19,35,16.10
2008,06,19,19,36,16.10
2008,06,19,19,37,16.10
2008,06,19,19,38,16.10
2008,06,19,19,39,16.10
2008,06,19,19,40,16.10
2008,06,19,19,41,16.10
2008,06,19,19,42,16.10
2008,06,19,19,43,16.10
2008,06,19,19,44,16.10
2008,06,19,19,45,16.10
2008,06,19,19,46,16.10
2008,06,19,19,47,16.00
2008,06,19,19,48,15.90
2008,06,19,19,49,15.90
2008,06,19,19,50,15.90
2008,06,19,19,51,15.90
2008,06,19,19,52,15.90
2008,06,19,19,53,15.90
2008,06,19,19,54,16.10
2008,06,19,19,55,16.10
2008,06,19,19,56,16.10
2008,06,19,19,57,16.10
2008,06,19,19,58,16.10
2008,06,19,19,59,16.10
2008,06,19,20,00,16.10
2008,06,19,20,01,16.10
2008,06,19,20,02,16.10
2008,06,19,20,03,16.10
2008,06,19,20,04,16.10
2008,06,19,20,05,16.10
2008,06,19,20,06,16.00
2008,06,19,20,07,15.90
2008,06,19,20,08,15.90
2008,06,19,20,09,15.90
2008,06,19,20,10,15.90
2008,06,19,20,11,15.90
2008,06,19,20,12,15.90
2008,06,19,20,13,15.90
2008,06,19,20,14,15.90
2008,06,19,20,15,15.90
2008,06,19,20,16,15.90
2008,06,19,20,17,15.90
2008,06,19,20,18,15.90
2008,06,19,20,19,16.00
2008,06,19,20,20,16.10
2008,06,19,20,21,16.10
2008,06,19,20,22,16.10
2008,06,19,20,23,16.10
2008,06,19,20,24,16.10
2008,06,19,20,25,16.10
2008,06,19,20,26,16.10
2008,06,19,20,27,16.10
2008,06,19,20,28,16.10
2008,06,19,20,29,16.20
2008,06,19,20,30,16.20
2008,06,19,20,31,16.20
2008,06,19,20,32,16.20
2008,06,19,20,33,16.30
2008,06,19,20,34,16.30
2008,06,19,20,35,16.30
2008,06,19,20,36,16.30
2008,06,19,20,37,16.30
2008,06,19,20,38,16.30
2008,06,19,20,39,16.30
2008,06,19,20,40,16.30
2008,06,19,20,41,16.30
2008,06,19,20,42,16.30
2008,06,19,20,43,16.30
2008,06,19,20,44,16.30
2008,06,19,20,45,16.30
2008,06,19,20,46,16.30
2008,06,19,20,47,16.30
2008,06,19,20,48,16.30
2008,06,19,20,49,16.30
2008,06,19,20,50,16.40
2008,06,19,20,51,16.40
2008,06,19,20,52,16.40
2008,06,19,20,53,16.40
2008,06,19,20,54,16.40
2008,06,19,20,55,16.40
2008,06,19,20,56,16.40
2008,06,19,20,57,16.40
2008,06,19,20,58,16.40
2008,06,19,20,59,16.40